Change the Weather History Date:

Saturday, November 3, 2012

  Actual Average (KPOE) Record (KPOE)
Temperature  
Mean Temperature 72 °F -  
Max Temperature 82 °F 70 °F 84 °F (2003)
Min Temperature 62 °F 50 °F 35 °F (1999)
Cooling Degree Days 7    
Growing Degree Days 22 (Base 50)    
Moisture  
Dew Point 62 °F    
Average Humidity 82    
Maximum Humidity 100    
Minimum Humidity 36    
Precipitation  
Precipitation 0.01 in - - ()
Sea Level Pressure  
Sea Level Pressure 30.07 in    
Wind  
Wind Speed 3 mph (SSW)    
Max Wind Speed 10 mph    
Max Gust Speed 17 mph    
Visibility 6 miles    
Events Fog    
Averages and records for this station are not official NWS values.
T = Trace of Precipitation, MM = Missing Value Source: NWS Daily Summary

Daily Weather History Graph

Daily Weather History Graph

Search for Another Location

Airport or City:

Trip Planner

Search our weather history database for the weather conditions in past years. The results will help you decide how hot, cold, wet, or windy it might be!

Date:

Astronomy

Nov. 03, 2012 Rise Set
Actual Time 7:30 AM CDT 6:21 PM CDT
Civil Twilight 7:04 AM CDT 6:47 PM CDT
Nautical Twilight 6:36 AM CDT 7:15 PM CDT
Astronomical Twilight 6:07 AM CDT 7:44 PM CDT
Moon 10:09 PM CDT (11/3) 11:28 AM CDT (11/3)
Length of Visible Light 11h 42m
Length of Day
10h 51m
Waning Gibbous, 80% of the Moon is Illuminated
Nov 3
Waning Gibbous
Nov 6
Last Quarter
Nov 13
New
Nov 20
First Quarter
Nov 28
Full

Hourly Weather History & Observations

Time (CDT) Temp. Heat Index Dew Point Humidity Pressure Visibility Wind Dir Wind Speed Gust Speed Precip Events Conditions
12:53 AM 64.9 °F - 63.0 °F 93% 30.04 in 10.0 mi South 4.6 mph - N/A   Clear
1:53 AM 66.0 °F - 64.0 °F 93% 30.04 in 8.0 mi South 6.9 mph - N/A   Clear
2:29 AM 64.4 °F - 64.4 °F 100% 30.05 in 6.0 mi South 4.6 mph - N/A   Partly Cloudy
2:41 AM 64.4 °F - 64.4 °F 100% 30.04 in 5.0 mi South 4.6 mph - N/A   Mostly Cloudy
2:53 AM 64.9 °F - 64.0 °F 97% 30.04 in 5.0 mi South 3.5 mph - N/A   Scattered Clouds
3:53 AM 64.0 °F - 63.0 °F 96% 30.04 in 5.0 mi Calm Calm - N/A   Clear
4:00 AM 64.4 °F - 62.6 °F 94% 30.04 in 2.5 mi Calm Calm - N/A   Partly Cloudy
4:11 AM 64.4 °F - 62.6 °F 94% 30.05 in 1.8 mi SSE 3.5 mph - N/A   Scattered Clouds
4:20 AM 64.4 °F - 62.6 °F 94% 30.05 in 2.0 mi South 3.5 mph - N/A   Scattered Clouds
4:24 AM 64.4 °F - 62.6 °F 94% 30.05 in 1.0 mi Calm Calm - N/A   Mist
4:37 AM 64.4 °F - 62.6 °F 94% 30.05 in 1.2 mi Calm Calm - N/A   Partly Cloudy
4:49 AM 64.4 °F - 62.6 °F 94% 30.05 in 0.8 mi Calm Calm - N/A   Mist
4:53 AM 64.0 °F - 63.0 °F 96% 30.05 in 0.8 mi Calm Calm - N/A   Mist
5:51 AM 64.4 °F - 62.6 °F 94% 30.07 in 2.0 mi South 3.5 mph - N/A   Mostly Cloudy
5:53 AM 64.0 °F - 63.0 °F 96% 30.06 in 3.0 mi South 3.5 mph - N/A   Mostly Cloudy
6:01 AM 64.4 °F - 62.6 °F 94% 30.07 in 5.0 mi Calm Calm - N/A   Scattered Clouds
6:25 AM 62.6 °F - 60.8 °F 94% 30.08 in 2.0 mi Calm Calm - N/A   Mostly Cloudy
6:33 AM 62.6 °F - 62.6 °F 100% 30.08 in 1.2 mi Calm Calm - N/A   Mostly Cloudy
6:53 AM 63.0 °F - 61.0 °F 93% 30.08 in 1.0 mi Calm Calm - 0.01 in   Mist
7:16 AM 62.6 °F - 62.6 °F 100% 30.09 in 0.8 mi Calm Calm - N/A   Mist
7:53 AM 63.0 °F - 62.1 °F 97% 30.10 in 0.2 mi Calm Calm - N/A Fog Fog
8:53 AM 64.9 °F - 64.0 °F 97% 30.12 in 0.2 mi Calm Calm - N/A Fog Fog
9:10 AM 66.2 °F - 64.4 °F 94% 30.12 in 2.0 mi Calm Calm - N/A   Mostly Cloudy
9:18 AM 66.2 °F - 66.2 °F 100% 30.12 in 8.0 mi Calm Calm - N/A   Mostly Cloudy
9:25 AM 66.2 °F - 66.2 °F 100% 30.13 in 10.0 mi SW 3.5 mph - N/A   Scattered Clouds
9:53 AM 71.1 °F - 66.9 °F 87% 30.12 in 10.0 mi SW 4.6 mph - N/A   Clear
10:53 AM 75.9 °F - 64.0 °F 67% 30.12 in 10.0 mi SSW 8.1 mph - N/A   Clear
11:53 AM 78.1 °F - 62.1 °F 58% 30.11 in 10.0 mi West 10.4 mph - N/A   Clear
12:53 PM 80.1 °F 80.7 °F 59.0 °F 48% 30.09 in 10.0 mi SSW 8.1 mph - N/A   Clear
1:53 PM 82.9 °F 81.8 °F 53.1 °F 36% 30.06 in 10.0 mi SSW 8.1 mph 17.3 mph N/A   Clear
2:53 PM 82.0 °F 81.2 °F 53.1 °F 37% 30.02 in 10.0 mi WSW 5.8 mph - N/A   Clear
3:53 PM 82.9 °F 82.0 °F 55.0 °F 38% 30.01 in 10.0 mi Variable 5.8 mph - N/A   Clear
4:53 PM 82.0 °F 81.4 °F 55.0 °F 39% 30.00 in 10.0 mi SSW 5.8 mph - N/A   Clear
5:53 PM 77.0 °F - 59.0 °F 54% 30.02 in 10.0 mi South 5.8 mph - N/A   Clear
6:53 PM 73.9 °F - 60.1 °F 62% 30.05 in 10.0 mi South 6.9 mph - N/A   Clear
7:53 PM 73.0 °F - 61.0 °F 66% 30.06 in 10.0 mi SSW 5.8 mph - N/A   Clear
8:53 PM 72.0 °F - 63.0 °F 73% 30.06 in 10.0 mi SW 5.8 mph - N/A   Clear
9:53 PM 71.1 °F - 61.0 °F 70% 30.07 in 10.0 mi WNW 4.6 mph - N/A   Clear
10:53 PM 68.0 °F - 59.0 °F 73% 30.07 in 10.0 mi Calm Calm - N/A   Clear
11:53 PM 66.0 °F - 59.0 °F 78% 30.06 in 10.0 mi South 3.5 mph - N/A   Clear